Regional Weather Roundup
Issued by NWS

Home | Current Version | Previous Version | Graphics & Text | Print | Product List | Glossary On
Versions: 1 2 3 4 5 6 7 8 9 10 11 12 13 14 15 16 17 18 19 20 21 22 23 24 25 26 27 28 29 30 31 32 33 34 35 36 37 38 39 40 41 42 43 44 45 46 47 48 49 50
000
ASUS43 KLMK 290210
RWRKY
KENTUCKY REGIONAL WEATHER ROUNDUP
NATIONAL WEATHER SERVICE LOUISVILLE KY
1000 PM EDT FRI AUG 28 2015

NOTE "FAIR" INDICATES FEW OR NO CLOUDS BELOW 12,000 FEET
WITH NO SIGNIFICANT WEATHER AND/OR OBSTRUCTIONS TO VISIBILITY.

KYZ001>023-026-027-061>063-070>075-290300-
WESTERN AND SOUTH CENTRAL KENTUCKY

CITY           SKY/WX    TMP DP  RH WIND       PRES   REMARKS
PADUCAH        PTCLDY    69  65  86 CALM      30.04R
HENDERSON      CLEAR     66  63  88 CALM      30.05R
OWENSBORO      CLEAR     74  65  73 CALM      30.07R
HOPKINSVILLE   CLEAR     75  64  67 CALM      30.06R
BOWLING GREEN  CLEAR     74  64  71 E3        30.09R
GLASGOW        CLEAR     71  65  81 E5        30.10R
$$

KYZ024-025-028>034-038-045-046-053-290300-
NORTH CENTRAL KENTUCKY

CITY           SKY/WX    TMP DP  RH WIND       PRES   REMARKS
LOUISVILLE/SDF PTCLDY    77  61  57 SE5       30.09R
LOUISVILLE/LOU CLEAR     77  61  57 CALM      30.10R
FORT KNOX      CLEAR     71  64  76 E2        30.09R
$$

KYZ035>037-039>044-047>052-055>060-089>105-290300-
NORTHEAST KENTUCKY

CITY           SKY/WX    TMP DP  RH WIND       PRES   REMARKS
LEXINGTON      CLEAR     74  60  61 E7        30.14R
COVINGTON      MOCLDY    69  58  67 SE5       30.13R
FRANKFORT      CLEAR     69  62  78 CALM      30.12R
$$

KYZ054-064>069-076>088-106>120-290300-
SOUTHEAST KENTUCKY

CITY           SKY/WX    TMP DP  RH WIND       PRES   REMARKS
JACKSON        CLEAR     72  62  71 CALM      30.17R
LONDON         CLEAR     71  64  78 CALM      30.16R
SOMERSET       PTCLDY    68  66  94 CALM      30.15R
MIDDLESBORO    CLEAR     68  63  83 CALM      30.17R
MONTICELLO     CLEAR     64  64 100 CALM      30.16R FOG
$$




USA.gov is the U.S. government's official web portal to all federal, state and local government web resources and services.